Location: Cicognara
(44.9500°N, 10.4667°E)
Time: 08:50:16
(UTC+00:00)

Cosmos 1725 Rocket - Pass Details

Date: 20 June 2021
Orbit: 962 x 990 km, 82.9° (Epoch: 04 August)

Event Time Altitude Azimuth Distance (km) Brightness Sun altitude
Rises 20:26:55 0° 354° (N) 3,659 8.0 -11.1°
Reaches altitude 10° 20:29:29 10° 359° (N) 2,709 7.2 -11.4°
Maximum altitude 20:35:35 58° 78° (ENE) 1,115 4.2 -12.0°
Enters shadow 20:40:30 16° 154° (SSE) 2,281 5.3 -12.6°
